• In Deutschland
  • Länderverzeichnis
  • Für 7 Tage
  • Wassertemperatur
  • Satellitenkarten
  • Wetterkarte
  • Widgets
  • user-avatar
    Anmelden

    Stündliche Wetter Darwin

    Heute, 20 September, Mittwoch

    Zeit Temperatur Niederschläge Wind Luftdruck Luftfeuchtigkeit
    00:00 +28°C° 0,1 mm 1 m/S 759 mmHg 76%
    01:00 +28°C° 0,1 mm 1 m/S 759 mmHg 76%
    02:00 +28°C° 0,1 mm 1 m/S 759 mmHg 77%
    03:00 +28°C° 0 mm 1 m/S 759 mmHg 76%
    04:00 +27°C° 0 mm 1 m/S 759 mmHg 77%
    05:00 +27°C° 0 mm 1 m/S 759 mmHg 78%
    06:00 +27°C° 0 mm 1 m/S 759 mmHg 79%
    07:00 +29°C° 0 mm 1 m/S 759 mmHg 69%
    08:00 +31°C° 0 mm 1 m/S 759 mmHg 59%
    09:00 +35°C° 0 mm 2 m/S 760 mmHg 48%
    10:00 +36°C° 0 mm 2 m/S 759 mmHg 40%
    11:00 +38°C° 0 mm 3 m/S 759 mmHg 32%
    12:00 +40°C° 0 mm 3 m/S 758 mmHg 24%
    13:00 +41°C° 0 mm 4 m/S 758 mmHg 24%
    14:00 +41°C° 0 mm 4 m/S 757 mmHg 24%
    15:00 +40°C° 0 mm 4 m/S 757 mmHg 28%
    16:00 +38°C° 0 mm 4 m/S 757 mmHg 35%
    17:00 +36°C° 0 mm 4 m/S 757 mmHg 42%
    18:00 +34°C° 0 mm 3 m/S 757 mmHg 49%
    19:00 +33°C° 0 mm 3 m/S 757 mmHg 56%
    20:00 +31°C° 0 mm 2 m/S 758 mmHg 62%
    21:00 +30°C° 0 mm 2 m/S 758 mmHg 68%
    22:00 +29°C° 0 mm 1 m/S 758 mmHg 69%
    23:00 +29°C° 0 mm 1 m/S 758 mmHg 70%

    Morgen, 21 September, Donnerstag

    Zeit Temperatur Niederschläge Wind Luftdruck Luftfeuchtigkeit
    00:00 +29°C° 0 mm 1 m/S 758 mmHg 72%
    01:00 +29°C° 0,1 mm 1 m/S 758 mmHg 73%
    02:00 +28°C° 0,1 mm 1 m/S 758 mmHg 73%
    03:00 +28°C° 0,1 mm 1 m/S 758 mmHg 74%
    04:00 +28°C° 0 mm 1 m/S 758 mmHg 75%
    05:00 +28°C° 0 mm 1 m/S 758 mmHg 76%
    06:00 +27°C° 0 mm 1 m/S 759 mmHg 77%
    07:00 +30°C° 0 mm 2 m/S 759 mmHg 65%
    08:00 +32°C° 0 mm 2 m/S 759 mmHg 54%
    09:00 +35°C° 0 mm 3 m/S 759 mmHg 43%
    10:00 +37°C° 0 mm 3 m/S 759 mmHg 37%
    11:00 +38°C° 0 mm 4 m/S 758 mmHg 31%
    12:00 +41°C° 0 mm 4 m/S 758 mmHg 25%
    13:00 +41°C° 0 mm 4 m/S 757 mmHg 25%
    14:00 +42°C° 0 mm 4 m/S 757 mmHg 24%
    15:00 +42°C° 0 mm 4 m/S 756 mmHg 24%
    16:00 +40°C° 0 mm 4 m/S 756 mmHg 31%
    17:00 +37°C° 0 mm 4 m/S 756 mmHg 38%
    18:00 +35°C° 0 mm 3 m/S 756 mmHg 45%
    19:00 +34°C° 0 mm 3 m/S 756 mmHg 52%
    20:00 +33°C° 0 mm 3 m/S 757 mmHg 59%
    21:00 +30°C° 0 mm 2 m/S 758 mmHg 65%
    22:00 +30°C° 0 mm 2 m/S 758 mmHg 68%
    23:00 +30°C° 0 mm 2 m/S 758 mmHg 70%

    übermorgen, 22 September, Freitag

    Zeit Temperatur Niederschläge Wind Luftdruck Luftfeuchtigkeit
    00:00 +29°C° 0 mm 1 m/S 759 mmHg 73%
    01:00 +29°C° 0,5 mm 1 m/S 758 mmHg 73%
    02:00 +29°C° 0,5 mm 1 m/S 758 mmHg 74%
    03:00 +29°C° 0,5 mm 1 m/S 758 mmHg 74%
    04:00 +29°C° 0 mm 1 m/S 758 mmHg 75%
    05:00 +28°C° 0 mm 1 m/S 758 mmHg 75%
    06:00 +26°C° 0 mm 0 m/S 758 mmHg 75%
    07:00 +30°C° 0 mm 1 m/S 759 mmHg 68%
    08:00 +31°C° 0 mm 1 m/S 759 mmHg 61%
    09:00 +32°C° 0 mm 2 m/S 760 mmHg 54%
    10:00 +35°C° 0 mm 2 m/S 759 mmHg 44%
    11:00 +38°C° 0 mm 3 m/S 759 mmHg 34%
    12:00 +41°C° 0 mm 4 m/S 758 mmHg 24%
    13:00 +41°C° 0 mm 4 m/S 757 mmHg 24%
    14:00 +41°C° 0 mm 5 m/S 757 mmHg 24%
    15:00 +41°C° 0 mm 5 m/S 756 mmHg 24%
    16:00 +39°C° 0 mm 5 m/S 756 mmHg 32%
    17:00 +36°C° 0 mm 4 m/S 756 mmHg 40%
    18:00 +34°C° 0 mm 3 m/S 756 mmHg 47%
    19:00 +33°C° 0 mm 3 m/S 757 mmHg 54%
    20:00 +31°C° 0 mm 3 m/S 758 mmHg 60%
    21:00 +30°C° 0 mm 3 m/S 759 mmHg 66%
    22:00 +30°C° 0 mm 3 m/S 759 mmHg 70%
    23:00 +30°C° 0 mm 2 m/S 759 mmHg 73%

    23 September, Samstag

    Zeit Temperatur Niederschläge Wind Luftdruck Luftfeuchtigkeit
    00:00 +29°C° 0 mm 2 m/S 760 mmHg 76%
    01:00 +29°C° 0,2 mm 2 m/S 759 mmHg 78%
    02:00 +28°C° 0,2 mm 2 m/S 759 mmHg 79%
    03:00 +28°C° 0,2 mm 1 m/S 759 mmHg 81%
    04:00 +28°C° 0 mm 1 m/S 759 mmHg 82%
    05:00 +28°C° 0 mm 1 m/S 759 mmHg 83%
    06:00 +27°C° 0 mm 1 m/S 759 mmHg 84%
    07:00 +30°C° 0 mm 1 m/S 759 mmHg 73%
    08:00 +32°C° 0 mm 1 m/S 760 mmHg 62%
    09:00 +34°C° 0 mm 1 m/S 760 mmHg 52%
    10:00 +37°C° 0 mm 2 m/S 760 mmHg 46%
    11:00 +39°C° 0 mm 2 m/S 759 mmHg 39%
    12:00 +42°C° 0 mm 3 m/S 759 mmHg 33%
    13:00 +40°C° 0,1 mm 3 m/S 758 mmHg 35%
    14:00 +40°C° 0,1 mm 4 m/S 757 mmHg 38%
    15:00 +37°C° 0,1 mm 5 m/S 756 mmHg 40%
    16:00 +36°C° 0 mm 4 m/S 757 mmHg 45%
    17:00 +35°C° 0 mm 4 m/S 757 mmHg 50%
    18:00 +34°C° 0 mm 3 m/S 757 mmHg 55%
    19:00 +33°C° 0 mm 3 m/S 757 mmHg 60%
    20:00 +31°C° 0 mm 3 m/S 758 mmHg 65%
    21:00 +30°C° 0 mm 3 m/S 758 mmHg 70%
    22:00 +30°C° 0 mm 3 m/S 758 mmHg 73%
    23:00 +29°C° 0 mm 3 m/S 758 mmHg 76%

    24 September, Sonntag

    Zeit Temperatur Niederschläge Wind Luftdruck Luftfeuchtigkeit
    00:00 +29°C° 0 mm 2 m/S 758 mmHg 79%
    01:00 +29°C° 0 mm 2 m/S 758 mmHg 81%
    02:00 +28°C° 0 mm 2 m/S 758 mmHg 82%
    03:00 +28°C° 0 mm 1 m/S 758 mmHg 83%
    04:00 +28°C° 0 mm 1 m/S 758 mmHg 85%
    05:00 +28°C° 0 mm 1 m/S 758 mmHg 86%
    06:00 +27°C° 0 mm 1 m/S 759 mmHg 87%
    07:00 +30°C° 0,2 mm 1 m/S 759 mmHg 76%
    08:00 +32°C° 0,2 mm 1 m/S 759 mmHg 65%
    09:00 +34°C° 0,2 mm 1 m/S 760 mmHg 54%
    10:00 +36°C° 0 mm 2 m/S 759 mmHg 49%
    11:00 +37°C° 0 mm 2 m/S 759 mmHg 45%
    12:00 +39°C° 0 mm 3 m/S 758 mmHg 41%
    13:00 +38°C° 0 mm 3 m/S 757 mmHg 41%
    14:00 +38°C° 0 mm 4 m/S 757 mmHg 42%
    15:00 +37°C° 0 mm 4 m/S 756 mmHg 43%
    16:00 +36°C° 0 mm 4 m/S 756 mmHg 46%
    17:00 +35°C° 0 mm 3 m/S 756 mmHg 50%
    18:00 +34°C° 0 mm 3 m/S 756 mmHg 53%
    19:00 +33°C° 0 mm 3 m/S 757 mmHg 59%
    20:00 +31°C° 0 mm 3 m/S 757 mmHg 65%
    21:00 +30°C° 0 mm 3 m/S 758 mmHg 72%
    22:00 +30°C° 0 mm 3 m/S 758 mmHg 74%
    23:00 +29°C° 0 mm 3 m/S 758 mmHg 76%

    25 September, Montag

    Zeit Temperatur Niederschläge Wind Luftdruck Luftfeuchtigkeit
    00:00 +29°C° 0 mm 3 m/S 758 mmHg 78%
    01:00 +29°C° 0 mm 2 m/S 757 mmHg 80%
    02:00 +28°C° 0 mm 2 m/S 757 mmHg 81%
    03:00 +28°C° 0 mm 2 m/S 757 mmHg 83%
    04:00 +28°C° 0 mm 1 m/S 757 mmHg 84%
    05:00 +28°C° 0 mm 1 m/S 758 mmHg 85%
    06:00 +25°C° 0 mm 0 m/S 758 mmHg 86%
    07:00 +30°C° 0 mm 1 m/S 758 mmHg 76%
    08:00 +32°C° 0 mm 1 m/S 759 mmHg 66%
    09:00 +34°C° 0 mm 1 m/S 759 mmHg 56%
    10:00 +36°C° 0 mm 2 m/S 759 mmHg 52%
    11:00 +37°C° 0 mm 2 m/S 758 mmHg 48%
    12:00 +37°C° 0 mm 3 m/S 757 mmHg 44%
    13:00 +37°C° 0,2 mm 3 m/S 757 mmHg 46%
    14:00 +37°C° 0,2 mm 3 m/S 756 mmHg 47%
    15:00 +36°C° 0,2 mm 3 m/S 756 mmHg 49%
    16:00 +35°C° 0 mm 3 m/S 756 mmHg 50%
    17:00 +35°C° 0 mm 3 m/S 756 mmHg 52%
    18:00 +34°C° 0 mm 3 m/S 756 mmHg 54%
    19:00 +33°C° 0 mm 3 m/S 757 mmHg 58%
    20:00 +31°C° 0 mm 3 m/S 757 mmHg 63%
    21:00 +30°C° 0 mm 3 m/S 758 mmHg 68%
    22:00 +30°C° 0 mm 3 m/S 757 mmHg 70%
    23:00 +30°C° 0 mm 3 m/S 757 mmHg 73%
    Mehr zeigen